Grants-Milan, NM

6:50 PM MDT on July 21, 2017 (GMT -0600)
Grants-Milan Municipal

Weather History for KGNT - March, 2013

Change the Weather History Date:

Wednesday, March 6, 2013

  Actual Average Record
Temperature  
Mean Temperature 49 °F -  
Max Temperature 67 °F 56 °F 75 °F (1972)
Min Temperature 31 °F 21 °F 1 °F (1967)
Degree Days  
Heating Degree Days 16    
Moisture  
Dew Point 15 °F    
Average Humidity 30    
Maximum Humidity 54    
Minimum Humidity 12    
Precipitation  
Precipitation 0.00 in - - ()
Sea Level Pressure  
Sea Level Pressure 30.12 in    
Wind  
Wind Speed 5 mph (SW)    
Max Wind Speed 21 mph    
Max Gust Speed 32 mph    
Visibility 10 miles    
Events      
Averages and records for this station are not official NWS values.
T = Trace of Precipitation, MM = Missing Value Source: NWS Daily Summary

Daily Weather History Graph

Daily Weather History Graph

Search for Another Location

Airport or City:

Trip Planner

Search our weather history database for the weather conditions in past years. The results will help you decide how hot, cold, wet, or windy it might be!

Date:

Astronomy

Mar. 06, 2013 Rise Set
Actual Time 6:34 AM MST 6:11 PM MST
Civil Twilight 6:08 AM MST 6:37 PM MST
Nautical Twilight 5:39 AM MST 7:06 PM MST
Astronomical Twilight 5:10 AM MST 7:36 PM MST
Moon 2:36 AM MST (3/6) 1:05 PM MST (3/6)
Length of Visible Light 12h 28m
Length of Day
11h 37m
Waning Crescent, 29% of the Moon is Illuminated
Mar 6
Waning Crescent
Mar 11
New
Mar 19
First Quarter
Mar 27
Full
Apr 2
Last Quarter

Hourly Weather History & Observations

Time (MST) Temp. Windchill Dew Point Humidity Pressure Visibility Wind Dir Wind Speed Gust Speed Precip Events Conditions
12:15 AM 37.4 °F 33.8 °F 16.2 °F 42% 30.20 in 10.0 mi South 4.6 mph - N/A   Clear
12:35 AM 40.1 °F 38.0 °F 17.2 °F 40% 30.20 in 10.0 mi SW 3.5 mph - N/A   Clear
12:55 AM 39.9 °F 37.8 °F 17.2 °F 40% 30.20 in 10.0 mi SSW 3.5 mph - N/A   Clear
1:15 AM 39.0 °F - 17.1 °F 41% 30.20 in 10.0 mi Calm Calm - N/A   Clear
1:35 AM 38.7 °F - 17.2 °F 42% 30.20 in 10.0 mi Calm Calm - N/A   Clear
1:55 AM 38.3 °F - 17.6 °F 43% 30.20 in 10.0 mi Calm Calm - N/A   Clear
2:15 AM 33.8 °F - 16.9 °F 50% 30.20 in 10.0 mi Calm Calm - N/A   Clear
2:35 AM 33.3 °F - 16.3 °F 50% 30.19 in 10.0 mi Calm Calm - N/A   Clear
2:55 AM 36.0 °F - 17.1 °F 46% 30.18 in 10.0 mi Calm Calm - N/A   Clear
3:15 AM 33.3 °F 30.2 °F 17.1 °F 51% 30.18 in 10.0 mi South 3.5 mph - N/A   Clear
3:35 AM 32.0 °F - 16.3 °F 52% 30.18 in 10.0 mi Calm Calm - N/A   Clear
3:55 AM 32.7 °F - 17.4 °F 53% 30.17 in 10.0 mi Calm Calm - N/A   Clear
4:55 AM 33.3 °F 30.2 °F 17.2 °F 52% 30.18 in 10.0 mi SSW 3.5 mph - N/A   Scattered Clouds
5:15 AM 32.0 °F - 15.8 °F 51% 30.17 in 10.0 mi Calm Calm - N/A   Mostly Cloudy
5:35 AM 35.1 °F 32.2 °F 16.9 °F 48% 30.16 in 10.0 mi SSW 3.5 mph - N/A   Scattered Clouds
5:55 AM 34.7 °F 30.6 °F 17.4 °F 49% 30.17 in 10.0 mi South 4.6 mph - N/A   Clear
6:15 AM 31.8 °F 28.5 °F 16.7 °F 54% 30.16 in 10.0 mi SSE 3.5 mph - N/A   Clear
6:35 AM 31.6 °F 27.0 °F 16.5 °F 54% 30.16 in 10.0 mi South 4.6 mph - N/A   Clear
6:55 AM 33.8 °F 28.6 °F 17.2 °F 51% 30.16 in 10.0 mi SSE 5.8 mph - N/A   Clear
7:15 AM 33.8 °F 29.6 °F 17.1 °F 50% 30.16 in 10.0 mi ESE 4.6 mph - N/A   Clear
7:35 AM 37.4 °F - 18.3 °F 46% 30.18 in 10.0 mi Calm Calm - N/A   Clear
7:55 AM 36.0 °F - 17.2 °F 47% 30.18 in 10.0 mi Calm Calm - N/A   Clear
8:15 AM 38.1 °F - 18.7 °F 46% 30.18 in 10.0 mi Calm Calm - N/A   Clear
8:35 AM 44.1 °F 42.5 °F 19.4 °F 37% 30.18 in 10.0 mi SE 3.5 mph - N/A   Scattered Clouds
8:55 AM 47.3 °F - 19.4 °F 33% 30.18 in 10.0 mi SE 8.1 mph - N/A   Overcast
9:15 AM 47.5 °F - 19.4 °F 33% 30.18 in 10.0 mi SSE 8.1 mph - N/A   Overcast
9:35 AM 48.9 °F - 20.1 °F 32% 30.18 in 10.0 mi SE 9.2 mph - N/A   Mostly Cloudy
9:55 AM 52.5 °F - 20.7 °F 29% 30.17 in 10.0 mi SE 12.7 mph - N/A   Scattered Clouds
10:15 AM 53.8 °F - 21.4 °F 28% 30.15 in 10.0 mi ESE 10.4 mph - N/A   Clear
10:35 AM 55.8 °F - 22.1 °F 27% 30.15 in 10.0 mi SSE 8.1 mph - N/A   Clear
10:55 AM 59.7 °F - 22.8 °F 24% 30.14 in 10.0 mi SE 9.2 mph - N/A   Clear
11:15 AM 61.7 °F - 21.9 °F 22% 30.14 in 10.0 mi SW 4.6 mph - N/A   Clear
11:35 AM 61.2 °F - 19.0 °F 20% 30.13 in 10.0 mi SW 8.1 mph 11.5 mph N/A   Clear
11:55 AM 61.5 °F - 18.3 °F 19% 30.12 in 10.0 mi SW 3.5 mph - N/A   Clear
12:15 PM 64.8 °F - 18.5 °F 17% 30.11 in 10.0 mi SW 11.5 mph 18.4 mph N/A   Scattered Clouds
12:35 PM 63.7 °F - 18.7 °F 18% 30.10 in 10.0 mi WSW 9.2 mph - N/A   Clear
12:55 PM 63.3 °F - 19.2 °F 18% 30.09 in 10.0 mi WSW 15.0 mph 21.9 mph N/A   Clear
1:15 PM 64.0 °F - 18.0 °F 17% 30.08 in 10.0 mi West 18.4 mph 25.3 mph N/A   Clear
1:35 PM 63.7 °F - 18.5 °F 18% 30.07 in 10.0 mi WSW 12.7 mph 18.4 mph N/A   Clear
1:55 PM 63.9 °F - 18.7 °F 18% 30.07 in 10.0 mi WSW 15.0 mph 27.6 mph N/A   Clear
2:15 PM 65.3 °F - 17.8 °F 16% 30.06 in 10.0 mi West 11.5 mph 17.3 mph N/A   Clear
2:35 PM 66.7 °F - 14.4 °F 13% 30.06 in 10.0 mi WSW 16.1 mph 25.3 mph N/A   Clear
2:55 PM 66.7 °F - 13.8 °F 13% 30.06 in 10.0 mi WSW 13.8 mph 20.7 mph N/A   Clear
3:15 PM 65.8 °F - 12.4 °F 13% 30.05 in 10.0 mi West 20.7 mph 32.2 mph N/A   Clear
3:35 PM 67.5 °F - 13.3 °F 12% 30.04 in 10.0 mi SW 16.1 mph 25.3 mph N/A   Clear
3:55 PM 65.1 °F - 12.4 °F 13% 30.04 in 10.0 mi West 20.7 mph 27.6 mph N/A   Clear
4:15 PM 65.3 °F - 11.1 °F 12% 30.04 in 10.0 mi West 19.6 mph 32.2 mph N/A   Clear
4:35 PM 64.9 °F - 10.9 °F 12% 30.04 in 10.0 mi West 16.1 mph 26.5 mph N/A   Clear
4:55 PM 65.3 °F - 12.2 °F 13% 30.04 in 10.0 mi West 15.0 mph 25.3 mph N/A   Clear
5:15 PM 64.0 °F - 12.0 °F 13% 30.04 in 10.0 mi WSW 18.4 mph 27.6 mph N/A   Clear
5:35 PM 62.8 °F - 10.9 °F 13% 30.04 in 10.0 mi West 9.2 mph 24.2 mph N/A   Clear
5:55 PM 61.3 °F - 10.8 °F 14% 30.04 in 10.0 mi West 11.5 mph 20.7 mph N/A   Clear
6:15 PM 59.0 °F - 9.3 °F 14% 30.04 in 10.0 mi West 11.5 mph 16.1 mph N/A   Clear
6:35 PM 55.0 °F - 8.4 °F 16% 30.05 in 10.0 mi West 6.9 mph - N/A   Clear
6:55 PM 52.7 °F - 7.7 °F 16% 30.06 in 10.0 mi West 8.1 mph - N/A   Clear
7:15 PM 52.0 °F - 6.8 °F 16% 30.06 in 10.0 mi WSW 5.8 mph - N/A   Clear
7:35 PM 46.9 °F - 7.7 °F 20% 30.07 in 10.0 mi Calm Calm - N/A   Clear
7:55 PM 43.3 °F - 7.5 °F 23% 30.07 in 10.0 mi Calm Calm - N/A   Clear
8:15 PM 44.4 °F - 8.6 °F 23% 30.07 in 10.0 mi Calm Calm - N/A   Clear
8:35 PM 41.2 °F - 8.8 °F 26% 30.07 in 10.0 mi Calm Calm - N/A   Clear
8:55 PM 36.0 °F - 5.5 °F 28% 30.08 in 10.0 mi Calm Calm - N/A   Clear
9:15 PM 33.4 °F - 3.2 °F 28% 30.09 in 10.0 mi Calm Calm - N/A   Clear
9:35 PM 37.9 °F - 7.5 °F 28% 30.09 in 10.0 mi Calm Calm - N/A   Clear
9:55 PM 38.7 °F - 9.3 °F 30% 30.09 in 10.0 mi Calm Calm - N/A   Clear
10:15 PM 39.7 °F 34.3 °F 10.9 °F 31% 30.09 in 10.0 mi SW 8.1 mph - N/A   Clear
10:35 PM 42.4 °F 37.0 °F 11.7 °F 29% 30.09 in 10.0 mi SW 9.2 mph - N/A   Clear
10:55 PM 41.4 °F 36.2 °F 11.5 °F 30% 30.09 in 10.0 mi SW 8.1 mph - N/A   Clear
11:15 PM 36.7 °F 32.9 °F 10.8 °F 34% 30.09 in 10.0 mi SSE 4.6 mph - N/A   Clear
11:35 PM 39.0 °F 34.8 °F 11.7 °F 33% 30.09 in 10.0 mi SSE 5.8 mph - N/A   Clear
11:55 PM 39.9 °F 35.1 °F 12.2 °F 32% 30.09 in 10.0 mi WSW 6.9 mph - N/A   Clear